This demonstration page uses our WeatherBlox Daily Observations layout. Learn more.

Left ArrowRight Arrow

Hourly Observations for September 27, 2015

Temp ( °F °C ) Dew Point ( °F °C ) Humidity (%) Winds ( mph kmh ) Pressure ( in mb ) Visibility ( mi km ) Precip ( " mm )
12:59 am 00:59 Cloudy 73 22.8 64 17.8 74 74 ENE 18 30 30.24 1024 8 13 0.00 0.00
1:59 am 01:59 Cloudy 73 22.8 64 17.8 74 74 ENE 20 31 30.23 1024 8 13 0.00 0.00
2:59 am 02:59 Cloudy 73 22.8 64 17.8 74 74 ENE 20 31 30.23 1024 8 13 0.00 0.00
3:59 am 03:59 Cloudy 73 22.8 64 17.8 74 74 ENE 16 26 30.22 1023 8 13 0.00 0.00
4:59 am 04:59 Cloudy 73 22.8 65 18.3 76 76 NE 17 28 30.21 1023 8 13 0.00 0.00
5:59 am 05:59 Cloudy 73 22.8 66 18.9 79 79 ENE 20 31 30.21 1023 7 11 0.00 0.00
6:59 am 06:59 Cloudy 73 22.8 66 18.9 79 79 ENE 18 30 30.23 1024 7 11 0.00 0.00
7:59 am 07:59 Cloudy with Haze 73 22.8 67 19.4 81 81 ENE 17 28 30.24 1024 6 10 0.00 0.00
8:59 am 08:59 Mostly Cloudy with Haze 74 23.3 67 19.4 79 79 ENE 17 28 30.25 1024 6 10 0.00 0.00
9:59 am 09:59 Mostly Cloudy with Haze 74 23.3 67 19.4 79 79 ENE 18 30 30.24 1024 6 10 0.00 0.00
10:59 am 10:59 Mostly Cloudy with Haze 77 25 68 20 74 74 ENE 21 33 30.25 1024 6 10 0.00 0.00
11:59 am 11:59 Mostly Cloudy with Haze 76 24.4 68 20 77 77 ENE 21 33 30.24 1024 6 10 0.00 0.00
12:59 pm 12:59 Mostly Cloudy 77 25 69 20.6 77 77 ENE 21 33 30.24 1024 7 11 0.00 0.00
1:59 pm 13:59 Mostly Cloudy 79 26.1 69 20.6 72 72 ENE 16 26 30.22 1023 7 11 0.00 0.00
2:59 pm 14:59 Mostly Cloudy 77 25 70 21.1 79 79 ENE 14 22 30.21 1023 7 11 0.00 0.00
3:59 pm 15:59 Cloudy with Haze 76 24.4 69 20.6 79 79 ENE 15 24 30.19 1023 6 10 0.00 0.00
4:59 pm 16:59 Cloudy with Haze 76 24.4 69 20.6 79 79 ENE 17 28 30.18 1022 6 10 0.00 0.00
5:59 pm 17:59 Mostly Cloudy with Haze 75 23.9 69 20.6 82 82 ENE 16 26 30.18 1022 6 10 0.00 0.00
6:59 pm 18:59 Mostly Cloudy with Haze 74 23.3 69 20.6 85 85 ENE 15 24 30.19 1022 6 10 0.00 0.00
7:59 pm 19:59 Mostly Cloudy with Light Rain 74 23.3 69 20.6 85 85 ENE 13 20 30.19 1022 6 10 0.00 0.03
8:59 pm 20:59 Mostly Cloudy 74 23.3 70 21.1 88 88 E 12 19 30.19 1022 7 11 0.00 0.03
9:59 pm 21:59 Mostly Cloudy 74 23.3 70 21.1 88 88 E 9 15 30.19 1022 7 11 0.00 0.00
10:59 pm 22:59 Mostly Cloudy 74 23.3 69 20.6 85 85 E 9 15 30.18 1022 9 14 0.00 0.00
11:59 pm 23:59 Mostly Cloudy 74 23.3 69 20.6 85 85 ENE 9 15 30.18 1022 8 13 0.00 0.00

Powered by AerisWeather